| time (UTC) | temp F | wind direction | speed MPH | gust MPH | rain 1hr in | rain 24hr in | rain mn in | humidity % | barometer mb |
| 20260901112553 | 60 | 259 | 2.0 | 6.0 | 0.00 | 0.00 | 0.00 | 92 | 1014.4 |
| 20260901112056 | 60 | 0 | 1.0 | 6.0 | 0.00 | 0.00 | 0.00 | 92 | 1014.5 |
| 20260901111609 | 60 | 360 | 1.0 | 8.0 | 0.00 | 0.00 | 0.00 | 91 | 1014.5 |
| 20260901111057 | 60 | 360 | 2.0 | 8.0 | 0.00 | 0.00 | 0.00 | 91 | 1014.5 |
| 20260901110556 | 60 | 268 | 2.0 | 10.0 | 0.00 | 0.00 | 0.00 | 91 | 1014.4 |
| 20260901110107 | 60 | 289 | 3.0 | 10.0 | 0.00 | 0.00 | 0.00 | 91 | 1014.5 |
| 20260901105556 | 60 | 0 | 2.0 | 8.0 | 0.00 | 0.00 | 0.00 | 91 | 1014.5 |
| 20260901105057 | 60 | 360 | 2.0 | 8.0 | 0.00 | 0.00 | 0.00 | 91 | 1014.5 |
| 20260901104602 | 61 | 360 | 2.0 | 8.0 | 0.00 | 0.00 | 0.00 | 91 | 1014.4 |
| 20260901104056 | 61 | 360 | 2.0 | 9.0 | 0.00 | 0.00 | 0.00 | 91 | 1014.4 |
| 20260901103555 | 61 | 181 | 2.0 | 9.0 | 0.00 | 0.00 | 0.00 | 91 | 1014.4 |
| 20260901103108 | 61 | 360 | 3.0 | 9.0 | 0.00 | 0.00 | 0.00 | 91 | 1014.4 |
| 20260901102555 | 61 | 267 | 2.0 | 10.0 | 0.00 | 0.00 | 0.00 | 91 | 1014.4 |
| 20260901102057 | 61 | 294 | 3.0 | 10.0 | 0.00 | 0.00 | 0.00 | 91 | 1014.2 |
| 20260901101602 | 61 | 257 | 2.0 | 6.0 | 0.00 | 0.00 | 0.00 | 91 | 1014.3 |
| 20260901101057 | 61 | 269 | 2.0 | 6.0 | 0.00 | 0.00 | 0.00 | 91 | 1014.3 |
| 20260901100556 | 61 | 255 | 1.0 | 6.0 | 0.00 | 0.00 | 0.00 | 90 | 1014.2 |
| 20260901100106 | 61 | 249 | 1.0 | 6.0 | 0.00 | 0.00 | 0.00 | 90 | 1014.1 |
| 20260901095556 | 61 | 360 | 1.0 | 6.0 | 0.00 | 0.00 | 0.00 | 90 | 1014.2 |
| 20260901095056 | 61 | 223 | 1.0 | 8.0 | 0.00 | 0.00 | 0.00 | 90 | 1014.2 |
| 20260901094607 | 61 | 360 | 1.0 | 8.0 | 0.00 | 0.00 | 0.00 | 90 | 1014.2 |
| 20260901094056 | 61 | 250 | 1.0 | 6.0 | 0.00 | 0.00 | 0.00 | 90 | 1014.2 |
| 20260901093556 | 61 | 244 | 1.0 | 8.0 | 0.00 | 0.00 | 0.00 | 90 | 1014.2 |
| 20260901093108 | 61 | 0 | 1.0 | 8.0 | 0.00 | 0.00 | 0.00 | 90 | 1014.1 |
| 20260901092553 | 61 | 360 | 0.0 | 7.0 | 0.00 | 0.00 | 0.00 | 89 | 1014.2 |
| 20260901092056 | 60 | 229 | 1.0 | 7.0 | 0.00 | 0.00 | 0.00 | 89 | 1014.2 |
| 20260901091620 | 60 | 0 | 1.0 | 7.0 | 0.00 | 0.00 | 0.00 | 90 | 1014.2 |
| 20260901091057 | 60 | 269 | 1.0 | 8.0 | 0.00 | 0.00 | 0.00 | 90 | 1014.4 |
| 20260901090556 | 60 | 288 | 2.0 | 8.0 | 0.00 | 0.00 | 0.00 | 89 | 1014.4 |
| 20260901090107 | 60 | 259 | 0.0 | 6.0 | 0.00 | 0.00 | 0.00 | 89 | 1014.4 |
| 20260901085555 | 60 | 360 | 1.0 | 6.0 | 0.00 | 0.00 | 0.00 | 89 | 1014.3 |
| 20260901085056 | 61 | 221 | 2.0 | 9.0 | 0.00 | 0.00 | 0.00 | 89 | 1014.3 |
| 20260901084607 | 61 | 279 | 2.0 | 9.0 | 0.00 | 0.00 | 0.00 | 89 | 1014.2 |
| 20260901084056 | 61 | 245 | 2.0 | 8.0 | 0.00 | 0.00 | 0.00 | 89 | 1014.2 |
| 20260901083555 | 61 | 360 | 2.0 | 8.0 | 0.00 | 0.00 | 0.00 | 89 | 1014.3 |
| 20260901083108 | 61 | 360 | 2.0 | 7.0 | 0.00 | 0.00 | 0.00 | 89 | 1014.3 |
| 20260901082556 | 61 | 285 | 2.0 | 8.0 | 0.00 | 0.00 | 0.00 | 88 | 1014.3 |
| 20260901082054 | 61 | 208 | 3.0 | 8.0 | 0.00 | 0.00 | 0.00 | 88 | 1014.2 |
| 20260901081602 | 61 | 288 | 0.0 | 6.0 | 0.00 | 0.00 | 0.00 | 88 | 1014.3 |
| 20260901081054 | 61 | 360 | 1.0 | 9.0 | 0.00 | 0.00 | 0.00 | 88 | 1014.3 |
| 20260901080557 | 61 | 229 | 1.0 | 10.0 | 0.00 | 0.00 | 0.00 | 87 | 1014.2 |
| 20260901080107 | 61 | 360 | 2.0 | 10.0 | 0.00 | 0.00 | 0.00 | 87 | 1014.3 |
| 20260901075557 | 61 | 219 | 2.0 | 9.0 | 0.00 | 0.00 | 0.00 | 87 | 1014.2 |
| 20260901075057 | 61 | 268 | 2.0 | 9.0 | 0.00 | 0.00 | 0.00 | 87 | 1014.2 |
| 20260901074602 | 61 | 360 | 1.0 | 5.0 | 0.00 | 0.00 | 0.00 | 86 | 1014.1 |
| 20260901074056 | 61 | 360 | 0.0 | 8.0 | 0.00 | 0.00 | 0.00 | 86 | 1014.2 |
| 20260901073556 | 61 | 181 | 1.0 | 9.0 | 0.00 | 0.00 | 0.00 | 86 | 1014.1 |
| 20260901073109 | 61 | 219 | 2.0 | 9.0 | 0.00 | 0.00 | 0.00 | 86 | 1014.1 |
| 20260901072556 | 61 | 214 | 2.0 | 9.0 | 0.00 | 0.00 | 0.00 | 86 | 1014.3 |
| 20260901072056 | 61 | 228 | 1.0 | 6.0 | 0.00 | 0.00 | 0.00 | 86 | 1014.3 |
| 20260901071604 | 61 | 320 | 1.0 | 5.0 | 0.00 | 0.00 | 0.00 | 87 | 1014.1 |
| 20260901071055 | 61 | 216 | 0.0 | 6.0 | 0.00 | 0.00 | 0.00 | 87 | 1014.2 |
| 20260901070556 | 61 | 195 | 1.0 | 6.0 | 0.00 | 0.00 | 0.00 | 87 | 1014.2 |
| 20260901070109 | 61 | 0 | 0.0 | 5.0 | 0.00 | 0.00 | 0.00 | 87 | 1014.2 |
| 20260901065555 | 61 | 236 | 2.0 | 5.0 | 0.00 | 0.00 | 0.00 | 87 | 1014.1 |
| 20260901065056 | 61 | 211 | 2.0 | 5.0 | 0.00 | 0.00 | 0.00 | 86 | 1014.2 |
| 20260901064614 | 61 | 235 | 2.0 | 9.0 | 0.00 | 0.00 | 0.00 | 86 | 1014.3 |
| 20260901064057 | 61 | 265 | 1.0 | 9.0 | 0.00 | 0.00 | 0.00 | 86 | 1014.3 |
| 20260901063556 | 61 | 283 | 1.0 | 9.0 | 0.00 | 0.00 | 0.00 | 86 | 1014.3 |
| 20260901063103 | 61 | 206 | 3.0 | 9.0 | 0.00 | 0.00 | 0.00 | 86 | 1014.3 |
| 20260901062556 | 61 | 360 | 2.0 | 6.0 | 0.00 | 0.00 | 0.00 | 86 | 1014.4 |
| 20260901062100 | 61 | 211 | 1.0 | 7.0 | 0.00 | 0.00 | 0.00 | 86 | 1014.4 |
| 20260901061601 | 61 | 227 | 2.0 | 7.0 | 0.00 | 0.00 | 0.00 | 86 | 1014.4 |
| 20260901061055 | 61 | 180 | 2.0 | 8.0 | 0.00 | 0.00 | 0.00 | 86 | 1014.4 |
| 20260901060556 | 61 | 206 | 1.0 | 8.0 | 0.00 | 0.00 | 0.00 | 85 | 1014.4 |
| 20260901060109 | 61 | 203 | 1.0 | 8.0 | 0.00 | 0.00 | 0.00 | 86 | 1014.5 |
| 20260901055555 | 61 | 0 | 2.0 | 8.0 | 0.00 | 0.00 | 0.00 | 85 | 1014.5 |
| 20260901055052 | 61 | 221 | 2.0 | 8.0 | 0.00 | 0.00 | 0.00 | 84 | 1014.5 |
| 20260901054605 | 61 | 237 | 1.0 | 10.0 | 0.00 | 0.00 | 0.00 | 84 | 1014.6 |
| 20260901054053 | 61 | 198 | 2.0 | 10.0 | 0.00 | 0.00 | 0.00 | 84 | 1014.6 |
| 20260901053556 | 61 | 264 | 1.0 | 5.0 | 0.00 | 0.00 | 0.00 | 84 | 1014.6 |
| 20260901053106 | 61 | 236 | 1.0 | 5.0 | 0.00 | 0.00 | 0.00 | 83 | 1014.6 |
| 20260901052552 | 61 | 0 | 2.0 | 6.0 | 0.00 | 0.00 | 0.00 | 83 | 1014.6 |
| 20260901052052 | 61 | 0 | 1.0 | 8.0 | 0.00 | 0.00 | 0.00 | 84 | 1014.6 |
| 20260901051604 | 61 | 360 | 2.0 | 8.0 | 0.00 | 0.00 | 0.00 | 84 | 1014.5 |
| 20260901051055 | 61 | 360 | 2.0 | 8.0 | 0.00 | 0.00 | 0.00 | 83 | 1014.6 |
| 20260901050552 | 61 | 248 | 3.0 | 6.0 | 0.00 | 0.00 | 0.00 | 84 | 1014.5 |
| 20260901050107 | 61 | 360 | 1.0 | 9.0 | 0.00 | 0.00 | 0.00 | 85 | 1014.5 |
| 20260901045552 | 61 | 263 | 2.0 | 9.0 | 0.00 | 0.00 | 0.00 | 85 | 1014.5 |
| 20260901045052 | 61 | 0 | 2.0 | 9.0 | 0.00 | 0.00 | 0.00 | 85 | 1014.5 |
| 20260901044606 | 61 | 360 | 0.0 | 5.0 | 0.00 | 0.00 | 0.00 | 85 | 1014.5 |
| 20260901044052 | 61 | 0 | 1.0 | 5.0 | 0.00 | 0.00 | 0.00 | 85 | 1014.5 |
| 20260901043553 | 61 | 287 | 1.0 | 7.0 | 0.00 | 0.00 | 0.00 | 85 | 1014.5 |
| 20260901043104 | 61 | 234 | 1.0 | 7.0 | 0.00 | 0.00 | 0.00 | 85 | 1014.4 |
| 20260901042555 | 61 | 229 | 1.0 | 6.0 | 0.00 | 0.00 | 0.00 | 85 | 1014.4 |
| 20260901042054 | 61 | 240 | 0.0 | 6.0 | 0.00 | 0.00 | 0.00 | 84 | 1014.4 |
| 20260901041602 | 61 | 0 | 1.0 | 6.0 | 0.00 | 0.00 | 0.00 | 84 | 1014.4 |
| 20260901041053 | 61 | 240 | 1.0 | 6.0 | 0.00 | 0.00 | 0.00 | 84 | 1014.4 |
| 20260901040552 | 61 | 360 | 2.0 | 6.0 | 0.00 | 0.00 | 0.00 | 84 | 1014.3 |
| 20260901040108 | 61 | 360 | 1.0 | 9.0 | 0.00 | 0.00 | 0.00 | 84 | 1014.3 |
| 20260901035552 | 61 | 360 | 2.0 | 9.0 | 0.00 | 0.00 | 0.00 | 84 | 1014.2 |
| 20260901035052 | 61 | 219 | 2.0 | 9.0 | 0.00 | 0.00 | 0.00 | 84 | 1014.1 |
| 20260901034607 | 61 | 225 | 1.0 | 9.0 | 0.00 | 0.00 | 0.00 | 85 | 1014.1 |
| 20260901034053 | 61 | 360 | 2.0 | 9.0 | 0.00 | 0.00 | 0.00 | 85 | 1014.0 |
| 20260901033552 | 61 | 250 | 1.0 | 9.0 | 0.00 | 0.00 | 0.00 | 86 | 1014.0 |
| 20260901033103 | 61 | 360 | 1.0 | 8.0 | 0.00 | 0.00 | 0.00 | 86 | 1013.9 |
| 20260901032552 | 61 | 0 | 3.0 | 8.0 | 0.00 | 0.00 | 0.00 | 85 | 1013.8 |
| 20260901032052 | 61 | 165 | 2.0 | 6.0 | 0.00 | 0.00 | 0.00 | 86 | 1013.7 |
| 20260901031606 | 61 | 251 | 1.0 | 6.0 | 0.00 | 0.00 | 0.00 | 85 | 1013.8 |
| 20260901031053 | 61 | 255 | 2.0 | 9.0 | 0.00 | 0.00 | 0.00 | 85 | 1013.6 |
| 20260901030551 | 61 | 254 | 3.0 | 10.0 | 0.00 | 0.00 | 0.00 | 85 | 1013.5 |
| 20260901030105 | 61 | 260 | 2.0 | 11.0 | 0.00 | 0.00 | 0.00 | 85 | 1013.5 |
| 20260901025553 | 61 | 231 | 2.0 | 11.0 | 0.00 | 0.00 | 0.00 | 85 | 1013.5 |
| 20260901025054 | 61 | 360 | 3.0 | 11.0 | 0.00 | 0.00 | 0.00 | 85 | 1013.5 |
| 20260901024611 | 61 | 360 | 3.0 | 10.0 | 0.00 | 0.00 | 0.00 | 84 | 1013.5 |
| 20260901024057 | 61 | 360 | 2.0 | 10.0 | 0.00 | 0.00 | 0.00 | 84 | 1013.5 |
| 20260901023556 | 61 | 249 | 4.0 | 10.0 | 0.00 | 0.00 | 0.00 | 83 | 1013.6 |
| 20260901023106 | 61 | 264 | 3.0 | 9.0 | 0.00 | 0.00 | 0.00 | 82 | 1013.6 |
| 20260901022556 | 61 | 242 | 4.0 | 11.0 | 0.00 | 0.00 | 0.00 | 82 | 1013.6 |
| 20260901022055 | 61 | 263 | 3.0 | 11.0 | 0.00 | 0.00 | 0.00 | 81 | 1013.5 |
| 20260901021602 | 61 | 196 | 3.0 | 10.0 | 0.00 | 0.00 | 0.00 | 81 | 1013.7 |
| 20260901021056 | 61 | 221 | 3.0 | 10.0 | 0.00 | 0.00 | 0.00 | 80 | 1013.6 |
| 20260901020557 | 62 | 238 | 3.0 | 11.0 | 0.00 | 0.00 | 0.00 | 81 | 1013.6 |
| 20260901015554 | 62 | 242 | 3.0 | 12.0 | 0.00 | 0.00 | 0.00 | 81 | 1013.6 |
| 20260901015056 | 62 | 332 | 4.0 | 12.0 | 0.00 | 0.00 | 0.00 | 81 | 1013.6 |
| 20260901014606 | 62 | 360 | 3.0 | 12.0 | 0.00 | 0.00 | 0.00 | 81 | 1013.6 |
| 20260901014056 | 62 | 278 | 4.0 | 11.0 | 0.00 | 0.00 | 0.00 | 81 | 1013.6 |
| 20260901013557 | 62 | 360 | 4.0 | 10.0 | 0.00 | 0.00 | 0.00 | 81 | 1013.6 |
| 20260901013123 | 62 | 208 | 4.0 | 13.0 | 0.00 | 0.00 | 0.00 | 81 | 1013.6 |
| 20260901012555 | 62 | 360 | 2.0 | 13.0 | 0.00 | 0.00 | 0.00 | 82 | 1013.6 |
| 20260901012055 | 62 | 360 | 4.0 | 13.0 | 0.00 | 0.00 | 0.00 | 82 | 1013.5 |
| 20260901011605 | 62 | 360 | 3.0 | 10.0 | 0.00 | 0.00 | 0.00 | 82 | 1013.4 |
| 20260901011055 | 62 | 360 | 2.0 | 9.0 | 0.00 | 0.00 | 0.00 | 82 | 1013.4 |
| 20260901010556 | 62 | 215 | 3.0 | 12.0 | 0.00 | 0.00 | 0.00 | 83 | 1013.5 |
| 20260901010119 | 62 | 246 | 4.0 | 12.0 | 0.00 | 0.00 | 0.00 | 83 | 1013.5 |
| 20260901005555 | 62 | 238 | 4.0 | 12.0 | 0.00 | 0.00 | 0.00 | 83 | 1013.6 |
| 20260901005054 | 62 | 360 | 3.0 | 12.0 | 0.00 | 0.00 | 0.00 | 84 | 1013.5 |
| 20260901004617 | 62 | 302 | 3.0 | 11.0 | 0.00 | 0.00 | 0.00 | 85 | 1013.6 |
| 20260901004052 | 62 | 212 | 3.0 | 11.0 | 0.00 | 0.00 | 0.00 | 85 | 1013.6 |
| 20260901003555 | 62 | 360 | 4.0 | 15.0 | 0.00 | 0.00 | 0.00 | 84 | 1013.7 |
| 20260901003103 | 62 | 305 | 2.0 | 15.0 | 0.00 | 0.00 | 0.00 | 85 | 1013.7 |
| 20260901002556 | 62 | 111 | 4.0 | 15.0 | 0.00 | 0.00 | 0.00 | 84 | 1013.6 |
| 20260901002056 | 62 | 360 | 3.0 | 14.0 | 0.00 | 0.00 | 0.00 | 84 | 1013.7 |
| 20260901001604 | 62 | 217 | 4.0 | 14.0 | 0.00 | 0.00 | 0.00 | 84 | 1013.8 |
| 20260901001055 | 62 | 232 | 4.0 | 10.0 | 0.00 | 0.00 | 0.00 | 84 | 1013.8 |
| 20260901000555 | 63 | 257 | 2.0 | 10.0 | 0.00 | 0.00 | 0.00 | 83 | 1013.8 |
| 20260901000108 | 62 | 197 | 3.0 | 10.0 | 0.00 | 0.00 | 0.00 | 83 | 1013.7 |
| 20260831235555 | 62 | 206 | 2.0 | 9.0 | 0.00 | 0.00 | 0.00 | 84 | 1013.9 |
| 20260831235055 | 62 | 249 | 2.0 | 9.0 | 0.00 | 0.00 | 0.00 | 83 | 1013.9 |
| 20260831234635 | 63 | 246 | 2.0 | 8.0 | 0.00 | 0.00 | 0.00 | 83 | 1013.9 |
| 20260831234100 | 63 | 195 | 1.0 | 10.0 | 0.00 | 0.00 | 0.00 | 83 | 1014.0 |
| 20260831233552 | 62 | 233 | 3.0 | 10.0 | 0.00 | 0.00 | 0.00 | 83 | 1013.9 |
| 20260831233101 | 62 | 269 | 3.0 | 10.0 | 0.00 | 0.00 | 0.00 | 83 | 1014.0 |
| 20260831232552 | 62 | 300 | 3.0 | 10.0 | 0.00 | 0.00 | 0.00 | 83 | 1014.0 |
| 20260831232055 | 62 | 219 | 2.0 | 11.0 | 0.00 | 0.00 | 0.00 | 83 | 1013.9 |
| 20260831231603 | 62 | 269 | 3.0 | 11.0 | 0.00 | 0.00 | 0.00 | 82 | 1013.9 |
| 20260831231054 | 63 | 284 | 2.0 | 11.0 | 0.00 | 0.00 | 0.00 | 83 | 1013.9 |
| 20260831230552 | 62 | 242 | 4.0 | 11.0 | 0.00 | 0.00 | 0.00 | 83 | 1014.0 |
| 20260831230108 | 63 | 217 | 2.0 | 16.0 | 0.00 | 0.00 | 0.00 | 83 | 1014.1 |
| 20260831225554 | 63 | 360 | 2.0 | 16.0 | 0.00 | 0.00 | 0.00 | 83 | 1014.2 |
| 20260831225055 | 63 | 260 | 6.0 | 16.0 | 0.00 | 0.00 | 0.00 | 83 | 1014.1 |
| 20260831224602 | 63 | 229 | 5.0 | 14.0 | 0.00 | 0.00 | 0.00 | 83 | 1014.1 |
| 20260831224055 | 63 | 208 | 4.0 | 11.0 | 0.00 | 0.00 | 0.00 | 84 | 1014.2 |
| 20260831223554 | 63 | 219 | 5.0 | 15.0 | 0.00 | 0.00 | 0.00 | 83 | 1014.2 |
| 20260831223107 | 63 | 243 | 5.0 | 15.0 | 0.00 | 0.00 | 0.00 | 84 | 1014.3 |
| 20260831222552 | 63 | 206 | 5.0 | 11.0 | 0.00 | 0.00 | 0.00 | 83 | 1014.3 |
| 20260831222054 | 63 | 282 | 3.0 | 11.0 | 0.00 | 0.00 | 0.00 | 83 | 1014.3 |
| 20260831221605 | 63 | 247 | 4.0 | 11.0 | 0.00 | 0.00 | 0.00 | 83 | 1014.3 |
| 20260831221053 | 63 | 279 | 4.0 | 11.0 | 0.00 | 0.00 | 0.00 | 83 | 1014.4 |
| 20260831220553 | 63 | 239 | 5.0 | 12.0 | 0.00 | 0.00 | 0.00 | 83 | 1014.4 |
| 20260831220105 | 63 | 259 | 5.0 | 12.0 | 0.00 | 0.00 | 0.00 | 83 | 1014.5 |
| 20260831215555 | 63 | 230 | 3.0 | 13.0 | 0.00 | 0.00 | 0.00 | 83 | 1014.5 |
| 20260831215055 | 63 | 199 | 3.0 | 13.0 | 0.00 | 0.00 | 0.00 | 84 | 1014.6 |
| 20260831214616 | 63 | 213 | 3.0 | 14.0 | 0.00 | 0.00 | 0.00 | 83 | 1014.6 |
| 20260831214055 | 63 | 212 | 3.0 | 14.0 | 0.00 | 0.00 | 0.00 | 83 | 1014.7 |
| 20260831213555 | 63 | 215 | 3.0 | 10.0 | 0.00 | 0.00 | 0.00 | 83 | 1014.7 |
| 20260831213104 | 63 | 263 | 5.0 | 10.0 | 0.00 | 0.00 | 0.00 | 83 | 1014.7 |
| 20260831212558 | 63 | 198 | 3.0 | 12.0 | 0.00 | 0.00 | 0.00 | 83 | 1014.9 |
| 20260831212053 | 63 | 220 | 4.0 | 12.0 | 0.00 | 0.00 | 0.00 | 84 | 1014.9 |
| 20260831211607 | 62 | 195 | 3.0 | 12.0 | 0.00 | 0.00 | 0.00 | 84 | 1014.9 |
| 20260831211052 | 62 | 277 | 4.0 | 11.0 | 0.00 | 0.00 | 0.00 | 84 | 1014.9 |
| 20260831210552 | 62 | 233 | 4.0 | 10.0 | 0.00 | 0.00 | 0.00 | 84 | 1015.0 |
| 20260831205552 | 61 | 237 | 3.0 | 10.0 | 0.00 | 0.00 | 0.00 | 86 | 1015.0 |
| 20260831205055 | 61 | 222 | 4.0 | 12.0 | 0.00 | 0.00 | 0.00 | 86 | 1015.1 |
| 20260831204608 | 61 | 232 | 4.0 | 12.0 | 0.00 | 0.00 | 0.00 | 86 | 1015.1 |
| 20260831204056 | 61 | 257 | 5.0 | 13.0 | 0.00 | 0.00 | 0.00 | 86 | 1015.0 |
| 20260831203557 | 61 | 271 | 4.0 | 13.0 | 0.00 | 0.00 | 0.00 | 86 | 1015.0 |
| 20260831203103 | 61 | 360 | 3.0 | 13.0 | 0.00 | 0.00 | 0.00 | 86 | 1015.0 |
| 20260831202638 | 61 | 277 | 3.0 | 13.0 | 0.00 | 0.00 | 0.00 | 86 | 1015.0 |
| 20260831202056 | 61 | 253 | 3.0 | 10.0 | 0.00 | 0.00 | 0.00 | 86 | 1015.0 |
| 20260831201623 | 61 | 227 | 3.0 | 10.0 | 0.00 | 0.00 | 0.00 | 86 | 1015.0 |
| 20260831201057 | 61 | 250 | 3.0 | 10.0 | 0.00 | 0.00 | 0.00 | 86 | 1015.0 |
| 20260831200558 | 61 | 214 | 5.0 | 10.0 | 0.00 | 0.00 | 0.00 | 86 | 1014.9 |
| 20260831200123 | 61 | 0 | 3.0 | 9.0 | 0.00 | 0.00 | 0.00 | 86 | 1014.9 |
| 20260831195555 | 61 | 279 | 2.0 | 9.0 | 0.00 | 0.00 | 0.00 | 86 | 1014.9 |
| 20260831195057 | 61 | 264 | 4.0 | 9.0 | 0.00 | 0.00 | 0.00 | 85 | 1014.9 |
| 20260831194624 | 61 | 209 | 4.0 | 9.0 | 0.00 | 0.00 | 0.00 | 84 | 1015.0 |
| 20260831194056 | 61 | 237 | 3.0 | 10.0 | 0.00 | 0.00 | 0.00 | 85 | 1015.1 |
| 20260831193557 | 61 | 217 | 3.0 | 10.0 | 0.00 | 0.00 | 0.00 | 84 | 1015.0 |
| 20260831193137 | 61 | 240 | 2.0 | 11.0 | 0.00 | 0.00 | 0.00 | 84 | 1015.1 |
| 20260831192555 | 61 | 196 | 2.0 | 11.0 | 0.00 | 0.00 | 0.00 | 84 | 1015.0 |
| 20260831192059 | 61 | 0 | 3.0 | 9.0 | 0.00 | 0.00 | 0.00 | 85 | 1015.1 |
| 20260831191611 | 61 | 221 | 1.0 | 10.0 | 0.00 | 0.00 | 0.00 | 85 | 1015.2 |
| 20260831191055 | 61 | 233 | 5.0 | 10.0 | 0.00 | 0.00 | 0.00 | 84 | 1015.1 |
| 20260831190559 | 61 | 270 | 3.0 | 11.0 | 0.00 | 0.00 | 0.00 | 84 | 1015.2 |
| 20260831190106 | 60 | 237 | 4.0 | 12.0 | 0.00 | 0.00 | 0.00 | 85 | 1015.2 |
| 20260831185555 | 60 | 360 | 4.0 | 12.0 | 0.00 | 0.00 | 0.00 | 85 | 1015.2 |
| 20260831185056 | 60 | 360 | 4.0 | 10.0 | 0.00 | 0.00 | 0.00 | 85 | 1015.3 |
| 20260831184604 | 60 | 204 | 3.0 | 14.0 | 0.00 | 0.00 | 0.00 | 84 | 1015.3 |
| 20260831184056 | 60 | 360 | 4.0 | 14.0 | 0.00 | 0.00 | 0.00 | 85 | 1015.2 |
| 20260831183555 | 60 | 360 | 4.0 | 14.0 | 0.00 | 0.00 | 0.00 | 85 | 1015.1 |
| 20260831183107 | 60 | 231 | 4.0 | 12.0 | 0.00 | 0.00 | 0.00 | 85 | 1015.1 |
| 20260831182555 | 60 | 238 | 3.0 | 12.0 | 0.00 | 0.00 | 0.00 | 86 | 1015.2 |
| 20260831182057 | 60 | 213 | 3.0 | 12.0 | 0.00 | 0.00 | 0.00 | 86 | 1015.2 |
| 20260831181614 | 60 | 223 | 2.0 | 9.0 | 0.00 | 0.00 | 0.00 | 87 | 1015.2 |
| 20260831181054 | 60 | 360 | 2.0 | 11.0 | 0.00 | 0.00 | 0.00 | 87 | 1015.1 |
| 20260831180554 | 59 | 225 | 3.0 | 11.0 | 0.00 | 0.00 | 0.00 | 86 | 1015.1 |
| 20260831180109 | 59 | 242 | 4.0 | 10.0 | 0.00 | 0.00 | 0.00 | 87 | 1015.1 |
| 20260831175556 | 59 | 213 | 3.0 | 10.0 | 0.00 | 0.00 | 0.00 | 87 | 1015.2 |
| 20260831175056 | 59 | 198 | 3.0 | 10.0 | 0.00 | 0.00 | 0.00 | 87 | 1015.3 |
| 20260831174606 | 59 | 240 | 4.0 | 10.0 | 0.00 | 0.00 | 0.00 | 87 | 1015.2 |
| 20260831174055 | 59 | 242 | 3.0 | 10.0 | 0.00 | 0.00 | 0.00 | 88 | 1015.1 |
| 20260831173556 | 59 | 216 | 1.0 | 11.0 | 0.00 | 0.00 | 0.00 | 88 | 1015.2 |
| 20260831173111 | 59 | 238 | 4.0 | 11.0 | 0.00 | 0.00 | 0.00 | 88 | 1015.2 |
| 20260831172557 | 58 | 192 | 2.0 | 11.0 | 0.00 | 0.00 | 0.00 | 89 | 1015.2 |
| 20260831172055 | 58 | 211 | 3.0 | 11.0 | 0.00 | 0.00 | 0.00 | 89 | 1015.2 |
| 20260831171604 | 58 | 360 | 3.0 | 9.0 | 0.00 | 0.00 | 0.00 | 89 | 1015.2 |
| 20260831171055 | 58 | 248 | 2.0 | 13.0 | 0.00 | 0.00 | 0.00 | 90 | 1015.0 |
| 20260831170557 | 58 | 266 | 2.0 | 13.0 | 0.00 | 0.00 | 0.00 | 90 | 1015.1 |
| 20260831170107 | 58 | 223 | 5.0 | 13.0 | 0.00 | 0.00 | 0.00 | 90 | 1015.0 |
| 20260831165556 | 58 | 360 | 5.0 | 11.0 | 0.00 | 0.00 | 0.00 | 90 | 1014.9 |
| 20260831165057 | 58 | 271 | 2.0 | 10.0 | 0.00 | 0.00 | 0.00 | 89 | 1014.9 |
| 20260831164613 | 59 | 212 | 3.0 | 8.0 | 0.00 | 0.00 | 0.00 | 89 | 1014.7 |
| 20260831164055 | 59 | 207 | 3.0 | 8.0 | 0.00 | 0.00 | 0.00 | 89 | 1014.7 |
| 20260831163555 | 59 | 360 | 2.0 | 10.0 | 0.00 | 0.00 | 0.00 | 89 | 1014.7 |
| 20260831163106 | 58 | 0 | 2.0 | 10.0 | 0.00 | 0.00 | 0.00 | 90 | 1014.6 |
| 20260831162556 | 58 | 213 | 2.0 | 10.0 | 0.00 | 0.00 | 0.00 | 90 | 1014.6 |
| 20260831162057 | 58 | 229 | 2.0 | 9.0 | 0.00 | 0.00 | 0.00 | 90 | 1014.4 |
| 20260831161612 | 58 | 188 | 3.0 | 9.0 | 0.00 | 0.00 | 0.00 | 90 | 1014.4 |
| 20260831161055 | 58 | 234 | 4.0 | 9.0 | 0.00 | 0.00 | 0.00 | 90 | 1014.4 |
| 20260831160555 | 58 | 218 | 2.0 | 8.0 | 0.00 | 0.00 | 0.00 | 91 | 1014.4 |
| 20260831160111 | 58 | 246 | 3.0 | 9.0 | 0.00 | 0.00 | 0.00 | 91 | 1014.4 |
| 20260831155555 | 58 | 192 | 3.0 | 9.0 | 0.00 | 0.00 | 0.00 | 91 | 1014.4 |
| 20260831155055 | 58 | 360 | 3.0 | 10.0 | 0.00 | 0.00 | 0.00 | 91 | 1014.4 |
| 20260831154631 | 58 | 242 | 3.0 | 10.0 | 0.00 | 0.00 | 0.00 | 91 | 1014.4 |
| 20260831154056 | 58 | 246 | 3.0 | 10.0 | 0.00 | 0.00 | 0.00 | 91 | 1014.5 |
| 20260831153556 | 58 | 238 | 1.0 | 7.0 | 0.00 | 0.00 | 0.00 | 91 | 1014.5 |
| 20260831153108 | 58 | 209 | 3.0 | 9.0 | 0.00 | 0.00 | 0.00 | 91 | 1014.4 |
| 20260831152555 | 58 | 253 | 1.0 | 9.0 | 0.00 | 0.00 | 0.00 | 90 | 1014.3 |
| 20260831152056 | 58 | 186 | 2.0 | 10.0 | 0.00 | 0.00 | 0.00 | 90 | 1014.3 |
| 20260831151607 | 57 | 261 | 3.0 | 11.0 | 0.00 | 0.00 | 0.00 | 90 | 1014.3 |
| 20260831151056 | 57 | 228 | 4.0 | 11.0 | 0.00 | 0.00 | 0.00 | 90 | 1014.3 |
| 20260831150556 | 57 | 172 | 4.0 | 10.0 | 0.00 | 0.00 | 0.00 | 90 | 1014.3 |
| 20260831150108 | 57 | 360 | 3.0 | 10.0 | 0.00 | 0.00 | 0.00 | 91 | 1014.3 |
| 20260831145555 | 57 | 214 | 2.0 | 8.0 | 0.00 | 0.00 | 0.00 | 91 | 1014.2 |
| 20260831145055 | 57 | 226 | 1.0 | 8.0 | 0.00 | 0.00 | 0.00 | 91 | 1014.1 |
| 20260831144604 | 57 | 360 | 3.0 | 8.0 | 0.00 | 0.00 | 0.00 | 91 | 1014.2 |
| 20260831144056 | 57 | 245 | 3.0 | 8.0 | 0.00 | 0.00 | 0.00 | 91 | 1014.1 |
| 20260831143556 | 57 | 236 | 3.0 | 8.0 | 0.00 | 0.00 | 0.00 | 91 | 1014.0 |
| 20260831143107 | 57 | 226 | 3.0 | 8.0 | 0.00 | 0.00 | 0.00 | 91 | 1014.1 |
| 20260831142557 | 57 | 207 | 3.0 | 7.0 | 0.00 | 0.00 | 0.00 | 90 | 1014.0 |
| 20260831142056 | 57 | 232 | 2.0 | 7.0 | 0.00 | 0.00 | 0.00 | 91 | 1013.9 |
| 20260831141606 | 57 | 204 | 0.0 | 7.0 | 0.00 | 0.00 | 0.00 | 90 | 1013.8 |
| 20260831141054 | 57 | 219 | 2.0 | 7.0 | 0.00 | 0.00 | 0.00 | 90 | 1013.7 |
| 20260831140555 | 57 | 176 | 2.0 | 10.0 | 0.00 | 0.00 | 0.00 | 90 | 1013.6 |
| 20260831140107 | 57 | 216 | 2.0 | 10.0 | 0.00 | 0.00 | 0.00 | 90 | 1013.6 |
| 20260831135553 | 57 | 227 | 3.0 | 10.0 | 0.00 | 0.00 | 0.00 | 90 | 1013.7 |
| 20260831135053 | 57 | 248 | 4.0 | 10.0 | 0.00 | 0.00 | 0.00 | 90 | 1013.6 |
| 20260831134607 | 57 | 196 | 3.0 | 10.0 | 0.00 | 0.00 | 0.00 | 90 | 1013.6 |
| 20260831134054 | 57 | 205 | 3.0 | 10.0 | 0.00 | 0.00 | 0.00 | 90 | 1013.6 |
| 20260831133556 | 58 | 196 | 3.0 | 11.0 | 0.00 | 0.00 | 0.00 | 90 | 1013.4 |
| 20260831133108 | 57 | 216 | 2.0 | 11.0 | 0.00 | 0.00 | 0.00 | 90 | 1013.4 |
| 20260831132553 | 58 | 257 | 3.0 | 9.0 | 0.00 | 0.00 | 0.00 | 89 | 1013.4 |
| 20260831132052 | 58 | 235 | 1.0 | 8.0 | 0.00 | 0.00 | 0.00 | 89 | 1013.4 |
| 20260831131604 | 58 | 239 | 2.0 | 11.0 | 0.00 | 0.00 | 0.00 | 89 | 1013.5 |
| 20260831131051 | 58 | 197 | 3.0 | 11.0 | 0.00 | 0.00 | 0.00 | 89 | 1013.5 |
| 20260831130554 | 58 | 211 | 4.0 | 11.0 | 0.00 | 0.00 | 0.00 | 89 | 1013.4 |
| 20260831130111 | 58 | 194 | 1.0 | 8.0 | 0.00 | 0.00 | 0.00 | 89 | 1013.4 |
| 20260831125553 | 58 | 250 | 2.0 | 10.0 | 0.00 | 0.00 | 0.00 | 89 | 1013.3 |
| 20260831125055 | 58 | 214 | 4.0 | 10.0 | 0.00 | 0.00 | 0.00 | 89 | 1013.3 |
| 20260831124616 | 58 | 239 | 4.0 | 10.0 | 0.00 | 0.00 | 0.00 | 89 | 1013.3 |
| 20260831124056 | 58 | 215 | 2.0 | 8.0 | 0.00 | 0.00 | 0.00 | 89 | 1013.3 |
| 20260831123552 | 58 | 231 | 2.0 | 8.0 | 0.00 | 0.00 | 0.00 | 89 | 1013.3 |
| 20260831123106 | 58 | 220 | 2.0 | 7.0 | 0.00 | 0.00 | 0.00 | 89 | 1013.3 |
| 20260831122552 | 58 | 214 | 1.0 | 7.0 | 0.00 | 0.00 | 0.00 | 89 | 1013.3 |
| 20260831122055 | 58 | 232 | 2.0 | 12.0 | 0.00 | 0.00 | 0.00 | 89 | 1013.3 |
| 20260831121600 | 58 | 188 | 4.0 | 12.0 | 0.00 | 0.00 | 0.00 | 89 | 1013.3 |
| 20260831121056 | 57 | 167 | 2.0 | 13.0 | 0.00 | 0.00 | 0.00 | 89 | 1013.2 |
| 20260831120554 | 57 | 188 | 4.0 | 13.0 | 0.00 | 0.00 | 0.00 | 88 | 1013.2 |
| 20260831120107 | 57 | 0 | 3.0 | 10.0 | 0.00 | 0.00 | 0.00 | 89 | 1013.2 |
| 20260831115554 | 58 | 264 | 3.0 | 9.0 | 0.00 | 0.00 | 0.00 | 89 | 1013.1 |
| 20260831115054 | 57 | 360 | 3.0 | 8.0 | 0.00 | 0.00 | 0.00 | 89 | 1013.1 |
| 20260831114607 | 58 | 221 | 2.0 | 8.0 | 0.00 | 0.00 | 0.00 | 89 | 1013.1 |
| 20260831114058 | 58 | 241 | 2.0 | 7.0 | 0.00 | 0.00 | 0.00 | 89 | 1013.0 |
| 20260831113555 | 58 | 214 | 2.0 | 9.0 | 0.00 | 0.00 | 0.00 | 89 | 1013.1 |
| 20260831113105 | 58 | 217 | 3.0 | 9.0 | 0.00 | 0.00 | 0.00 | 89 | 1013.0 |